Track STARLINK-1565 now! 10-day predictions STARLINK-1565 is classified as:
1 46037U 20055L 21108.80284639 .00000066 00000-0 23300-4 0 9998 2 46037 53.0586 223.7741 0001304 108.0671 252.0460 15.06403099 39712